�������l�o���
Date,Time,MP-1(��Sv/h),MP-2(��Sv/h),MP-3(��Sv/h),MP-4(��Sv/h),MP-5(��Sv/h),MP-6(��Sv/h),MP-7(��Sv/h),MP-8(��Sv/h),����,����(m/s),���J
2018/09/07,00:00,0.805,1.200,0.845,1.491,1.092,0.471,0.817,0.773,��쐼,1.7,��
2018/09/07,00:10,0.806,1.200,0.844,1.495,1.092,0.471,0.818,0.773,��,2.6,��
2018/09/07,00:20,0.808,1.201,0.846,1.493,1.092,0.472,0.820,0.773,�쓌,4.1,�L
2018/09/07,00:30,0.803,1.201,0.847,1.495,1.092,0.472,0.818,0.773,��쓌,3.3,��
2018/09/07,00:40,0.807,1.199,0.846,1.491,1.093,0.471,0.817,0.774,��쐼,3.0,�L
2018/09/07,00:50,0.806,1.200,0.847,1.494,1.093,0.473,0.819,0.773,�쐼,2.9,�L
2018/09/07,01:00,0.805,1.201,0.841,1.492,1.092,0.472,0.817,0.773,�쐼,0.8,�L
2018/09/07,01:10,0.806,1.201,0.840,1.494,1.094,0.472,0.818,0.773,���k��,2.6,�L
2018/09/07,01:20,0.805,1.202,0.846,1.493,1.090,0.472,0.818,0.776,���k��,2.6,��
2018/09/07,01:30,0.806,1.199,0.848,1.490,1.092,0.472,0.818,0.773,�k,1.4,��
2018/09/07,01:40,0.806,1.200,0.844,1.492,1.091,0.472,0.819,0.775,���k��,1.5,��
2018/09/07,01:50,0.806,1.199,0.845,1.495,1.095,0.472,0.816,0.774,�쐼,1.4,�L
2018/09/07,02:00,0.807,1.202,0.846,1.496,1.094,0.473,0.820,0.774,��쓌,2.0,�L
2018/09/07,02:10,0.807,1.203,0.847,1.493,1.095,0.471,0.819,0.776,���쓌,0.8,��
2018/09/07,02:20,0.808,1.201,0.846,1.494,1.091,0.472,0.818,0.774,�k��,0.8,��
2018/09/07,02:30,0.806,1.201,0.846,1.493,1.092,0.472,0.818,0.774,��,0.6,��
2018/09/07,02:40,0.807,1.201,0.848,1.495,1.093,0.472,0.820,0.773,�k��,0.8,��
2018/09/07,02:50,0.807,1.204,0.846,1.493,1.092,0.471,0.818,0.775,�k,0.8,��
2018/09/07,03:00,0.807,1.201,0.846,1.494,1.092,0.472,0.818,0.776,�k�k��,0.8,��
2018/09/07,03:10,0.806,1.203,0.849,1.495,1.093,0.471,0.817,0.774,�k��,1.5,��
2018/09/07,03:20,0.807,1.201,0.847,1.495,1.094,0.474,0.819,0.774,�k��,1.4,��
2018/09/07,03:30,0.808,1.203,0.847,1.494,1.094,0.472,0.818,0.774,�k�k��,2.5,��
2018/09/07,03:40,0.806,1.203,0.848,1.496,1.095,0.472,0.818,0.775,�k�k��,4.1,��
2018/09/07,03:50,0.806,1.203,0.847,1.493,1.093,0.473,0.818,0.775,�k�k��,3.8,��
2018/09/07,04:00,0.806,1.203,0.846,1.495,1.093,0.472,0.819,0.776,�k,3.5,�L
2018/09/07,04:10,0.806,1.201,0.847,1.492,1.092,0.472,0.818,0.774,�k,3.4,��
2018/09/07,04:20,0.807,1.201,0.847,1.493,1.091,0.472,0.820,0.775,�k�k��,3.8,�L
2018/09/07,04:30,0.807,1.202,0.847,1.496,1.094,0.472,0.819,0.774,�k,4.3,�L
2018/09/07,04:40,0.805,1.201,0.846,1.492,1.092,0.471,0.820,0.775,�k�k��,3.6,�L
2018/09/07,04:50,0.807,1.204,0.847,1.494,1.091,0.470,0.818,0.774,�k�k��,2.5,�L
2018/09/07,05:00,0.806,1.201,0.846,1.494,1.093,0.470,0.819,0.773,�k�k��,3.2,�L
2018/09/07,05:10,0.807,1.201,0.845,1.496,1.093,0.471,0.816,0.773,�k�k��,2.3,��
2018/09/07,05:20,0.805,1.199,0.847,1.491,1.093,0.472,0.818,0.775,�k,1.7,��
2018/09/07,05:30,0.804,1.202,0.847,1.492,1.095,0.471,0.819,0.775,�k,2.2,��
2018/09/07,05:40,0.807,1.199,0.846,1.493,1.090,0.470,0.818,0.776,�k�k��,2.2,��
2018/09/07,05:50,0.806,1.201,0.846,1.488,1.092,0.468,0.818,0.776,�k�k��,1.2,��
2018/09/07,06:00,0.805,1.204,0.846,1.493,1.093,0.469,0.818,0.773,�k�k��,2.0,��
2018/09/07,06:10,0.805,1.203,0.844,1.492,1.092,0.469,0.817,0.773,�k,2.2,��
2018/09/07,06:20,0.805,1.201,0.845,1.493,1.092,0.470,0.818,0.777,�k��,1.7,�L
2018/09/07,06:30,0.806,1.203,0.844,1.493,1.093,0.471,0.818,0.774,�k��,2.2,�L
2018/09/07,06:40,0.806,1.201,0.846,1.495,1.091,0.470,0.818,0.773,�k��,2.3,�L
2018/09/07,06:50,0.805,1.201,0.848,1.492,1.094,0.472,0.818,0.774,�k�k��,1.2,�L
2018/09/07,07:00,0.805,1.199,0.844,1.495,1.092,0.472,0.818,0.775,��,1.2,�L
2018/09/07,07:10,0.803,1.200,0.847,1.494,1.090,0.471,0.818,0.773,��,1.5,��
2018/09/07,07:20,0.807,1.202,0.846,1.491,1.092,0.471,0.818,0.774,-,CALM,��
2018/09/07,07:30,0.808,1.202,0.844,1.494,1.095,0.471,0.818,0.774,��,1.5,�L
2018/09/07,07:40,0.805,1.203,0.844,1.489,1.093,0.471,0.819,0.776,���k��,1.5,�L
2018/09/07,07:50,0.807,1.199,0.845,1.489,1.094,0.470,0.817,0.775,��,1.2,�L
2018/09/07,08:00,0.804,1.201,0.844,1.493,1.092,0.469,0.818,0.774,-,CALM,�L
2018/09/07,08:10,0.805,1.200,0.845,1.493,1.090,0.469,0.818,0.774,��,1.1,�L
2018/09/07,08:20,0.806,1.199,0.843,1.492,1.092,0.471,0.819,0.774,�쓌,0.6,��
2018/09/07,08:30,0.807,1.200,0.845,1.490,1.092,0.471,0.819,0.775,���쓌,1.2,��
2018/09/07,08:40,0.806,1.199,0.845,1.489,1.094,0.471,0.817,0.774,��쓌,0.6,�L
2018/09/07,08:50,0.805,1.202,0.845,1.492,1.094,0.470,0.818,0.774,��쓌,0.8,�L
2018/09/07,09:00,0.805,1.200,0.846,1.490,1.093,0.471,0.819,0.774,��쓌,1.2,�L
2018/09/07,09:10,0.805,1.200,0.847,1.494,1.093,0.471,0.817,0.775,��쓌,1.7,�L
2018/09/07,09:20,0.807,1.202,0.847,1.491,1.095,0.470,0.820,0.773,��쓌,1.7,�L
2018/09/07,09:30,0.807,1.199,0.846,1.494,1.096,0.471,0.820,0.773,��쓌,2.9,�L
2018/09/07,09:40,0.806,1.202,0.847,1.492,1.096,0.471,0.819,0.775,��쓌,2.3,��
2018/09/07,09:50,0.807,1.201,0.848,1.494,1.096,0.472,0.818,0.775,��쓌,2.6,��
2018/09/07,10:00,0.808,1.200,0.846,1.494,1.095,0.471,0.819,0.775,��쓌,3.3,��
2018/09/07,10:10,0.808,1.199,0.846,1.495,1.097,0.472,0.820,0.776,��쓌,3.1,��
2018/09/07,10:20,0.810,1.198,0.847,1.497,1.099,0.471,0.820,0.774,��쓌,3.4,��
2018/09/07,10:30,0.807,1.201,0.846,1.495,1.097,0.472,0.820,0.775,��쓌,3.1,��
2018/09/07,10:40,0.806,1.202,0.847,1.497,1.097,0.471,0.818,0.773,�쓌,2.3,��
2018/09/07,10:50,0.806,1.204,0.845,1.496,1.096,0.472,0.819,0.771,�쓌,2.6,��
2018/09/07,11:00,0.807,1.203,0.845,1.495,1.096,0.471,0.816,0.771,�쓌,3.2,��
2018/09/07,11:10,0.806,1.203,0.846,1.493,1.095,0.471,0.818,0.773,�쓌,4.2,��
2018/09/07,11:20,0.805,1.200,0.844,1.498,1.095,0.471,0.816,0.771,�쓌,4.2,��
2018/09/07,11:30,0.804,1.202,0.842,1.495,1.093,0.470,0.818,0.771,��쓌,4.1,��
2018/09/07,11:40,0.806,1.201,0.847,1.496,1.097,0.471,0.818,0.772,��,3.7,��
2018/09/07,11:50,0.807,1.202,0.847,1.496,1.095,0.472,0.818,0.772,��,3.6,��
2018/09/07,12:00,0.809,1.206,0.847,1.499,1.098,0.472,0.818,0.774,��쓌,5.2,��
2018/09/07,12:10,0.806,1.207,0.846,1.499,1.096,0.471,0.819,0.775,��쓌,6.4,��
2018/09/07,12:20,0.807,1.205,0.847,1.496,1.097,0.472,0.819,0.771,��,6.8,��
2018/09/07,12:30,0.805,1.202,0.848,1.496,1.098,0.473,0.820,0.773,��,6.8,��
2018/09/07,12:40,0.806,1.200,0.845,1.494,1.096,0.473,0.817,0.773,��쓌,7.0,��
2018/09/07,12:50,0.805,1.201,0.848,1.495,1.096,0.471,0.820,0.774,��쓌,7.0,��
2018/09/07,13:00,0.804,1.199,0.847,1.496,1.096,0.471,0.817,0.774,��쓌,7.7,��
2018/09/07,13:10,0.806,1.202,0.848,1.494,1.098,0.473,0.818,0.773,��쓌,6.5,��
2018/09/07,13:20,0.806,1.201,0.848,1.498,1.098,0.473,0.818,0.774,��쓌,8.4,��
2018/09/07,13:30,0.808,1.203,0.847,1.497,1.097,0.472,0.818,0.773,��쓌,7.9,��
2018/09/07,13:40,0.806,1.202,0.846,1.493,1.098,0.472,0.818,0.775,��쓌,7.6,��
2018/09/07,13:50,0.808,1.201,0.846,1.496,1.097,0.472,0.818,0.771,��쓌,8.0,��
2018/09/07,14:00,0.806,1.201,0.848,1.494,1.097,0.472,0.818,0.772,��쓌,6.1,��
2018/09/07,14:10,0.806,1.200,0.848,1.497,1.095,0.472,0.819,0.773,��쓌,6.1,��
2018/09/07,14:20,0.807,1.201,0.848,1.498,1.099,0.472,0.819,0.773,��쓌,5.9,��
2018/09/07,14:30,0.807,1.204,0.845,1.498,1.093,0.474,0.820,0.774,��,4.6,��
2018/09/07,14:40,0.804,1.202,0.849,1.497,1.095,0.475,0.819,0.773,��,4.9,��
2018/09/07,14:50,0.806,1.204,0.847,1.498,1.097,0.473,0.818,0.773,��,7.0,��
2018/09/07,15:00,0.807,1.205,0.849,1.493,1.098,0.475,0.820,0.773,��,7.0,��
2018/09/07,15:10,0.808,1.203,0.847,1.494,1.099,0.473,0.821,0.771,��,6.4,��
2018/09/07,15:20,0.807,1.206,0.847,1.499,1.098,0.472,0.821,0.773,��,6.6,��
2018/09/07,15:30,0.807,1.205,0.849,1.499,1.099,0.472,0.822,0.772,��,5.6,��
2018/09/07,15:40,0.809,1.208,0.849,1.499,1.100,0.473,0.822,0.775,��,5.8,��
2018/09/07,15:50,0.808,1.209,0.851,1.498,1.098,0.474,0.822,0.775,��,6.6,��
2018/09/07,16:00,0.808,1.210,0.849,1.497,1.096,0.475,0.820,0.772,��,6.7,��
2018/09/07,16:10,0.807,1.209,0.850,1.496,1.095,0.473,0.820,0.774,��,6.4,��
2018/09/07,16:20,0.806,1.208,0.851,1.497,1.097,0.474,0.819,0.774,��,5.7,��
2018/09/07,16:30,0.809,1.208,0.849,1.498,1.097,0.474,0.822,0.775,��,4.1,��
2018/09/07,16:40,0.807,1.211,0.850,1.498,1.097,0.474,0.822,0.776,��쐼,1.5,��
2018/09/07,16:50,0.810,1.208,0.851,1.499,1.097,0.474,0.820,0.774,��쐼,0.8,��
2018/09/07,17:00,0.807,1.210,0.848,1.499,1.098,0.474,0.820,0.774,��쐼,1.7,��
2018/09/07,17:10,0.808,1.209,0.850,1.497,1.096,0.474,0.820,0.774,���k��,1.1,��
2018/09/07,17:20,0.808,1.207,0.851,1.498,1.098,0.473,0.821,0.774,�k�k��,1.7,��
2018/09/07,17:30,0.808,1.210,0.850,1.493,1.097,0.473,0.821,0.774,�k�k��,1.9,��
2018/09/07,17:40,0.805,1.210,0.851,1.497,1.097,0.474,0.820,0.775,�k�k��,3.3,��
2018/09/07,17:50,0.808,1.213,0.850,1.499,1.098,0.472,0.820,0.774,�k�k��,4.2,��
2018/09/07,18:00,0.809,1.207,0.851,1.498,1.097,0.474,0.820,0.775,�k,3.8,��
2018/09/07,18:10,0.807,1.209,0.849,1.499,1.097,0.474,0.820,0.776,�k,4.5,��
2018/09/07,18:20,0.808,1.207,0.850,1.499,1.096,0.473,0.820,0.775,�k,4.7,��
2018/09/07,18:30,0.809,1.209,0.851,1.498,1.097,0.473,0.819,0.775,�k,3.8,��
2018/09/07,18:40,0.806,1.210,0.851,1.498,1.098,0.472,0.822,0.775,�k,5.0,��
2018/09/07,18:50,0.806,1.211,0.853,1.501,1.096,0.472,0.820,0.774,�k,4.7,��
2018/09/07,19:00,0.807,1.211,0.851,1.500,1.096,0.472,0.819,0.776,�k�k��,5.1,��
2018/09/07,19:10,0.807,1.210,0.852,1.498,1.096,0.472,0.821,0.776,�k,5.2,��
2018/09/07,19:20,0.805,1.210,0.851,1.499,1.098,0.472,0.821,0.777,�k�k��,4.3,��
2018/09/07,19:30,0.807,1.207,0.851,1.498,1.099,0.472,0.820,0.776,�k,4.6,��
2018/09/07,19:40,0.807,1.210,0.851,1.498,1.096,0.473,0.821,0.775,�k�k��,4.4,��
2018/09/07,19:50,0.807,1.211,0.852,1.496,1.095,0.470,0.819,0.776,�k,3.4,��
2018/09/07,20:00,0.808,1.207,0.851,1.499,1.096,0.472,0.820,0.776,�k,3.4,��
2018/09/07,20:10,0.809,1.211,0.849,1.500,1.097,0.472,0.821,0.776,�k�k��,3.1,��
2018/09/07,20:20,0.808,1.209,0.851,1.500,1.094,0.472,0.820,0.775,�k,3.1,��
2018/09/07,20:30,0.808,1.208,0.851,1.500,1.097,0.470,0.819,0.776,�k,3.1,��
2018/09/07,20:40,0.807,1.208,0.852,1.500,1.099,0.473,0.821,0.776,�k,2.3,��
2018/09/07,20:50,0.806,1.208,0.852,1.496,1.099,0.471,0.822,0.774,�k,3.7,��
2018/09/07,21:00,0.807,1.211,0.851,1.499,1.095,0.471,0.820,0.776,�k,2.5,��
2018/09/07,21:10,0.807,1.211,0.850,1.497,1.096,0.471,0.820,0.774,�k,1.9,��
2018/09/07,21:20,0.808,1.211,0.853,1.500,1.097,0.470,0.819,0.775,�k,1.1,��
2018/09/07,21:30,0.807,1.210,0.850,1.497,1.097,0.471,0.821,0.775,�k�k��,0.6,��
2018/09/07,21:40,0.806,1.210,0.851,1.498,1.097,0.472,0.821,0.776,-,CALM,��
2018/09/07,21:50,0.807,1.208,0.853,1.498,1.098,0.473,0.820,0.776,��쓌,0.8,��
2018/09/07,22:00,0.810,1.210,0.852,1.500,1.095,0.472,0.822,0.776,��쓌,1.2,��
2018/09/07,22:10,0.807,1.211,0.852,1.498,1.099,0.470,0.820,0.775,�쓌,1.1,��
2018/09/07,22:20,0.808,1.209,0.851,1.497,1.098,0.471,0.819,0.774,��쓌,0.6,��
2018/09/07,22:30,0.807,1.208,0.850,1.500,1.097,0.472,0.821,0.776,��,1.1,��
2018/09/07,22:40,0.809,1.209,0.851,1.499,1.097,0.472,0.820,0.775,�쓌,2.0,��
2018/09/07,22:50,0.808,1.210,0.850,1.499,1.097,0.471,0.821,0.776,�쓌,1.4,��
2018/09/07,23:00,0.807,1.208,0.852,1.499,1.096,0.473,0.820,0.776,��쓌,1.4,��
2018/09/07,23:10,0.807,1.208,0.851,1.498,1.097,0.471,0.819,0.777,�쓌,1.1,��
2018/09/07,23:20,0.807,1.209,0.851,1.500,1.099,0.471,0.820,0.775,�쓌,1.2,��
2018/09/07,23:30,0.807,1.207,0.851,1.498,1.096,0.471,0.819,0.775,��쓌,1.5,��
2018/09/07,23:40,0.807,1.205,0.851,1.499,1.096,0.471,0.821,0.774,��쓌,3.0,��
2018/09/07,23:50,0.808,1.207,0.851,1.498,1.097,0.471,0.820,0.776,��쓌,4.5,��
